KINEIS-4C

Last updated on Fri Sep 11 2026 00:02:53 GMT+0000 (Coordinated Universal Time)

1 63301U 25056B 26253.55324580 .00001041 00000+0 17233-3 0 9995 2 63301 97.9185 15.4118 0004625 63.1461 297.0219 14.72322667 79693
UTC large
Height (km)
Speed (km/s)
/
Latitude / Longitude
Inclination (degrees)
Orbital Period (minutes)
Azimuth
Elevation
Range (km)
Doppler Factor

Next 0 passes for location: London (51.5072 / 0.1276)

No passes found over London.
KINEIS-4C